Weather History for Hillsdale, MI

Change the Weather History Date:

Thursday, September 12, 2013

  Actual Average Record
Temperature  
Mean Temperature 67 °F -  
Max Temperature 77 °F 75 °F 93 °F (1952)
Min Temperature 56 °F 50 °F 32 °F (1955)
Cooling Degree Days 2    
Growing Degree Days 17 (Base 50)    
Moisture  
Dew Point 62 °F    
Average Humidity 80    
Maximum Humidity 100    
Minimum Humidity 43    
Precipitation  
Precipitation 0.00 in - - ()
Sea Level Pressure  
Sea Level Pressure 29.96 in    
Wind  
Wind Speed 5 mph (NW)    
Max Wind Speed 17 mph    
Max Gust Speed 28 mph    
Visibility 8 miles    
Events      
Averages and records for this station are not official NWS values.
T = Trace of Precipitation, MM = Missing Value Source: NWS Daily Summary

Daily Weather History Graph

Daily Weather History Graph

Search for Another Location

Airport:

Trip Planner

Search our weather history database for the weather conditions in past years. The results will help you decide how hot, cold, wet, or windy it might be!

Date:

Astronomy

Sep. 12, 2013 Rise Set
Actual Time 7:15 AM EDT 7:52 PM EDT
Civil Twilight 6:47 AM EDT 8:20 PM EDT
Nautical Twilight 6:14 AM EDT 8:53 PM EDT
Astronomical Twilight 5:39 AM EDT 9:27 PM EDT
Moon 2:48 PM EDT (9/12) No Moon Set
Length of Visible Light 13h 33m
Length of Day
12h 37m
Waxing Crescent, 50% of the Moon is Illuminated
Sep 12
Waxing Crescent
Sep 12
First Quarter
Sep 19
Full
Sep 26
Last Quarter
Oct 4
New

Hourly Weather History & Observations

Time (EDT) Temp. Dew Point Humidity Pressure Visibility Wind Dir Wind Speed Gust Speed Precip Events Conditions
12:15 AM 70.2 °F 69.8 °F 99% 29.99 in 10.0 mi Calm Calm - N/A   Scattered Clouds
12:34 AM 69.4 °F 69.4 °F 100% 29.99 in 7.0 mi Calm Calm - N/A   Scattered Clouds
12:55 AM 68.4 °F 68.4 °F 100% 29.99 in 4.0 mi Calm Calm - N/A   Scattered Clouds
1:14 AM 68.4 °F 68.4 °F 100% 29.99 in 7.0 mi Calm Calm - N/A   Scattered Clouds
1:34 AM 68.5 °F 68.5 °F 100% 29.98 in 10.0 mi Calm Calm - N/A   Scattered Clouds
1:55 AM 69.1 °F 69.1 °F 100% 29.98 in 10.0 mi WSW 3.5 mph - N/A   Overcast
2:14 AM 69.4 °F 69.3 °F 99% 29.99 in 10.0 mi West 3.5 mph - N/A   Overcast
2:35 AM 69.6 °F 69.3 °F 99% 29.98 in 10.0 mi West 4.6 mph - N/A   Overcast
2:55 AM 70.2 °F 69.4 °F 98% 29.98 in 10.0 mi West 3.5 mph - N/A   Overcast
3:14 AM 70.2 °F 69.6 °F 98% 29.97 in 10.0 mi West 3.5 mph - N/A   Mostly Cloudy
3:35 AM 70.2 °F 69.4 °F 98% 29.97 in 10.0 mi West 3.5 mph - N/A   Overcast
3:54 AM 70.3 °F 69.6 °F 98% 29.97 in 10.0 mi WSW 3.5 mph - N/A   Overcast
4:15 AM 70.5 °F 69.8 °F 98% 29.97 in 10.0 mi WSW 6.9 mph - N/A   Overcast
4:34 AM 70.2 °F 69.4 °F 98% 29.96 in 10.0 mi WSW 3.5 mph - N/A   Scattered Clouds
4:54 AM 69.6 °F 69.3 °F 99% 29.96 in 7.0 mi WSW 3.5 mph - N/A   Clear
5:15 AM 69.4 °F 69.3 °F 99% 29.95 in 7.0 mi WSW 3.5 mph - N/A   Scattered Clouds
5:34 AM 69.4 °F 69.4 °F 100% 29.95 in 5.0 mi WSW 3.5 mph - N/A   Mostly Cloudy
5:55 AM 69.3 °F 69.3 °F 100% 29.95 in 4.0 mi Calm Calm - N/A   Scattered Clouds
6:15 AM 69.3 °F 69.3 °F 100% 29.95 in 4.0 mi West 3.5 mph - N/A   Clear
6:34 AM 69.3 °F 69.3 °F 100% 29.95 in 4.0 mi West 4.6 mph - N/A   Clear
6:55 AM 69.3 °F 69.3 °F 100% 29.95 in 4.0 mi West 5.8 mph - N/A   Clear
7:14 AM 69.3 °F 69.3 °F 100% 29.95 in 4.0 mi West 6.9 mph - N/A   Clear
7:35 AM 69.1 °F 69.1 °F 100% 29.95 in 2.5 mi West 4.6 mph - N/A   Clear
7:55 AM 69.1 °F 69.1 °F 100% 29.95 in 2.0 mi West 4.6 mph - N/A   Mostly Cloudy
8:14 AM 69.1 °F 69.1 °F 100% 29.96 in 2.0 mi West 4.6 mph - N/A   Mostly Cloudy
8:35 AM 69.3 °F 69.3 °F 100% 29.95 in 2.0 mi WNW 4.6 mph - N/A   Overcast
8:55 AM 69.4 °F 69.4 °F 100% 29.96 in 2.0 mi WNW 6.9 mph - N/A   Overcast
9:14 AM 69.1 °F 69.1 °F 100% 29.96 in 2.5 mi WNW 10.4 mph - N/A   Overcast
9:35 AM 69.1 °F 68.5 °F 98% 29.96 in 3.0 mi WNW 8.1 mph - N/A   Overcast
9:54 AM 69.1 °F 67.8 °F 96% 29.96 in 4.0 mi NW 8.1 mph - N/A   Mostly Cloudy
10:14 AM 69.4 °F 67.6 °F 94% 29.96 in 5.0 mi NW 8.1 mph - N/A   Scattered Clouds
10:35 AM 69.8 °F 67.1 °F 91% 29.97 in 10.0 mi NNW 8.1 mph - N/A   Scattered Clouds
10:54 AM 69.6 °F 65.3 °F 86% 29.96 in 10.0 mi NNW 9.2 mph - N/A   Scattered Clouds
11:14 AM 70.3 °F 64.8 °F 82% 29.97 in 10.0 mi NNW 9.2 mph - N/A   Clear
11:35 AM 70.2 °F 64.8 °F 83% 29.98 in 10.0 mi NNW 6.9 mph - N/A   Clear
11:54 AM 70.2 °F 63.9 °F 80% 29.97 in 10.0 mi NW 6.9 mph - N/A   Clear
12:14 PM 70.2 °F 62.6 °F 77% 29.97 in 10.0 mi NNW 6.9 mph - N/A   Clear
12:34 PM 72.1 °F 59.7 °F 65% 29.98 in 10.0 mi NW 5.8 mph - N/A   Clear
12:54 PM 73.9 °F 58.1 °F 58% 29.97 in 10.0 mi WNW 5.8 mph - N/A   Clear
1:15 PM 75.6 °F 56.1 °F 51% 29.96 in 10.0 mi NNW 8.1 mph - N/A   Clear
1:34 PM 75.7 °F 54.3 °F 47% 29.96 in 10.0 mi WNW 5.8 mph 16.1 mph N/A   Clear
1:54 PM 75.9 °F 54.0 °F 46% 29.95 in 10.0 mi NW 6.9 mph - N/A   Clear
2:15 PM 76.6 °F 56.5 °F 50% 29.94 in 10.0 mi NW 6.9 mph - N/A   Unknown
2:34 PM 77.0 °F 53.2 °F 44% 29.94 in 10.0 mi NW 11.5 mph - N/A   Unknown
2:55 PM 77.2 °F 53.2 °F 43% 29.93 in 10.0 mi NNW 10.4 mph - N/A   Clear
3:14 PM 77.4 °F 54.9 °F 46% 29.92 in 10.0 mi NNW 8.1 mph - N/A   Clear
3:34 PM 76.8 °F 53.4 °F 44% 29.92 in 10.0 mi NW 8.1 mph - N/A   Clear
3:55 PM 76.1 °F 53.4 °F 45% 29.92 in 10.0 mi NW 6.9 mph - N/A   Clear
4:14 PM 76.5 °F 54.3 °F 46% 29.92 in 10.0 mi NNW 10.4 mph - N/A   Scattered Clouds
4:35 PM 76.5 °F 53.6 °F 45% 29.91 in 10.0 mi NW 9.2 mph - N/A   Scattered Clouds
4:55 PM 75.7 °F 54.1 °F 47% 29.90 in 10.0 mi NNW 9.2 mph - N/A   Scattered Clouds
5:14 PM 76.3 °F 54.0 °F 46% 29.89 in 10.0 mi NNW 6.9 mph - N/A   Clear
5:35 PM 74.5 °F 53.8 °F 48% 29.89 in 10.0 mi North 9.2 mph - N/A   Clear
5:54 PM 74.7 °F 54.3 °F 49% 29.88 in 10.0 mi North 8.1 mph - N/A   Scattered Clouds
6:14 PM 72.5 °F 54.7 °F 53% 29.89 in 10.0 mi North 6.9 mph - N/A   Scattered Clouds
6:35 PM 71.8 °F 54.5 °F 54% 29.90 in 10.0 mi NNW 9.2 mph - N/A   Mostly Cloudy
6:54 PM 69.3 °F 52.5 °F 55% 29.92 in 10.0 mi North 13.8 mph 27.6 mph N/A   Mostly Cloudy
7:14 PM 67.3 °F 52.7 °F 59% 29.93 in 10.0 mi North 9.2 mph 19.6 mph N/A   Overcast
7:35 PM 66.4 °F 53.6 °F 63% 29.93 in 10.0 mi North 17.3 mph 24.2 mph N/A   Overcast
7:54 PM 64.6 °F 54.5 °F 70% 29.94 in 10.0 mi North 11.5 mph 18.4 mph N/A   Scattered Clouds
8:14 PM 63.1 °F 55.8 °F 77% 29.95 in 10.0 mi North 10.4 mph 16.1 mph N/A   Clear
8:35 PM 62.8 °F 56.3 °F 79% 29.96 in 10.0 mi North 8.1 mph - N/A   Scattered Clouds
8:54 PM 61.9 °F 56.3 °F 82% 29.97 in 10.0 mi North 6.9 mph - N/A   Scattered Clouds
9:15 PM 61.3 °F 56.1 °F 83% 29.97 in 10.0 mi North 4.6 mph - N/A   Scattered Clouds
9:35 PM 60.3 °F 56.7 °F 88% 29.98 in 10.0 mi North 6.9 mph - N/A   Clear
9:54 PM 59.9 °F 56.7 °F 89% 29.99 in 10.0 mi North 6.9 mph - N/A   Clear
10:15 PM 59.5 °F 55.9 °F 88% 29.99 in 10.0 mi North 6.9 mph - N/A   Clear
10:35 PM 58.8 °F 55.0 °F 87% 29.99 in 10.0 mi North 6.9 mph - N/A   Clear
10:54 PM 58.6 °F 54.0 °F 84% 29.99 in 10.0 mi North 6.9 mph - N/A   Clear
11:15 PM 57.9 °F 52.9 °F 83% 29.99 in 10.0 mi North 6.9 mph - N/A   Clear
11:34 PM 57.6 °F 51.6 °F 81% 30.00 in 10.0 mi North 8.1 mph - N/A   Clear
11:54 PM 56.8 °F 51.1 °F 81% 30.01 in 10.0 mi North 6.9 mph - N/A   Clear